Weather History for Sheridan, WY

Change the Weather History Date:

Thursday, February 14, 2013

  Actual Average Record
Temperature  
Mean Temperature 26 °F 26 °F  
Max Temperature 29 °F 38 °F 69 °F (1921)
Min Temperature 22 °F 14 °F -32 °F (1936)
Degree Days  
Heating Degree Days 39 39  
Month to date heating degree days 528 556  
Since 1 July heating degree days 4723 5016  
Cooling Degree Days 0 0  
Month to date cooling degree days 0 0  
Year to date cooling degree days 0 0  
Moisture  
Dew Point 20 °F    
Average Humidity 73    
Maximum Humidity 92    
Minimum Humidity 53    
Precipitation  
Precipitation 0.07 in 0.02 in 0.54 in (1945)
Month to date precipitation 0.29 0.27  
Year to date precipitation 1.25 0.83  
Sea Level Pressure  
Sea Level Pressure 30.25 in    
Wind  
Wind Speed 14 mph (WNW)    
Max Wind Speed 31 mph    
Max Gust Speed 37 mph    
Visibility 5 miles    
Events Fog , Snow    
T = Trace of Precipitation, MM = Missing Value Source: NWS Daily Summary

Daily Weather History Graph

Daily Weather History Graph

Search for Another Location

Airport:

Trip Planner

Search our weather history database for the weather conditions in past years. The results will help you decide how hot, cold, wet, or windy it might be!

Date:

Astronomy

Feb. 14, 2013 Rise Set
Actual Time 7:09 AM MST 5:35 PM MST
Civil Twilight 6:39 AM MST 6:05 PM MST
Nautical Twilight 6:05 AM MST 6:39 PM MST
Astronomical Twilight 5:31 AM MST 7:13 PM MST
Moon 8:58 AM MST (2/14) 10:56 PM MST (2/14)
Length of Visible Light 11h 26m
Length of Day
10h 26m
Waxing Crescent, 22% of the Moon is Illuminated
Feb 14
Waxing Crescent
Feb 17
First Quarter
Feb 25
Full
Mar 4
Last Quarter
Mar 11
New

Hourly Weather History & Observations

Time (MST) Temp. Windchill Dew Point Humidity Pressure Visibility Wind Dir Wind Speed Gust Speed Precip Events Conditions
12:38 AM 28.4 °F 21.2 °F 26.6 °F 93% 30.03 in 8.0 mi North 6.9 mph - 0.00 in Snow Light Snow
12:46 AM 28.4 °F 18.0 °F 24.8 °F 86% 30.03 in 2.5 mi NNE 12.7 mph - 0.00 in Snow Light Snow
12:53 AM 27.0 °F 15.6 °F 25.0 °F 92% 30.13 in 1.5 mi NNE 13.8 mph - 0.00 in Snow Light Snow
1:04 AM 26.6 °F 15.2 °F 24.8 °F 93% 30.05 in 2.0 mi NNE 13.8 mph - 0.00 in Snow Light Snow
1:11 AM 26.6 °F 14.3 °F 24.8 °F 93% 30.06 in 1.0 mi North 16.1 mph 20.7 mph 0.01 in Snow Light Snow
1:20 AM 26.6 °F 13.8 °F 24.8 °F 93% 30.07 in 2.5 mi North 17.3 mph 27.6 mph 0.01 in Snow Light Snow
1:34 AM 26.6 °F 13.1 °F 24.8 °F 93% 30.11 in 1.8 mi NNW 19.6 mph 25.3 mph 0.01 in Snow Light Snow
1:53 AM 26.1 °F 14.5 °F 24.1 °F 92% 30.23 in 0.8 mi NW 13.8 mph - 0.03 in Snow Light Snow
2:01 AM 26.6 °F 13.4 °F 23.0 °F 86% 30.13 in 0.5 mi WNW 18.4 mph - 0.01 in Fog , Snow Snow
2:09 AM 26.6 °F 13.1 °F 24.8 °F 93% 30.13 in 0.8 mi WNW 19.6 mph - 0.01 in Snow Light Snow
2:23 AM 26.6 °F 14.3 °F 24.8 °F 93% 30.13 in 1.5 mi WNW 16.1 mph - 0.02 in Snow Light Snow
2:25 AM 26.6 °F 14.7 °F 23.0 °F 86% 30.13 in 2.0 mi WNW 15.0 mph - 0.02 in Snow Light Snow
2:29 AM 26.6 °F 13.1 °F 23.0 °F 86% 30.13 in 3.0 mi NW 19.6 mph 23.0 mph 0.02 in Snow Light Snow
2:45 AM 26.6 °F 13.8 °F 23.0 °F 86% 30.14 in 2.5 mi WNW 17.3 mph - 0.02 in Snow Light Snow
2:53 AM 25.0 °F 12.2 °F 23.0 °F 92% 30.25 in 1.5 mi WNW 16.1 mph - 0.02 in Snow Light Snow
3:11 AM 24.8 °F 12.4 °F 21.2 °F 86% 30.14 in 3.0 mi NW 15.0 mph - 0.00 in Snow Light Snow
3:19 AM 24.8 °F 11.1 °F 21.2 °F 86% 30.14 in 4.0 mi WNW 18.4 mph - 0.00 in Snow Light Snow
3:28 AM 24.8 °F 11.5 °F 21.2 °F 86% 30.14 in 2.5 mi WNW 17.3 mph - 0.00 in Snow Light Snow
3:35 AM 24.8 °F 11.9 °F 21.2 °F 86% 30.14 in 3.0 mi WNW 16.1 mph - 0.00 in Snow Light Snow
3:41 AM 24.8 °F 11.5 °F 21.2 °F 86% 30.15 in 1.8 mi WNW 17.3 mph - 0.00 in Snow Light Snow
3:53 AM 25.0 °F 10.2 °F 21.9 °F 88% 30.26 in 4.0 mi WNW 21.9 mph - 0.00 in Snow Light Snow
4:10 AM 24.8 °F 10.7 °F 21.2 °F 86% 30.15 in 1.8 mi WNW 19.6 mph - 0.00 in Snow Light Snow
4:17 AM 24.8 °F 11.1 °F 21.2 °F 86% 30.16 in 1.2 mi WNW 18.4 mph - 0.00 in Snow Light Snow
4:36 AM 24.8 °F 10.3 °F 21.2 °F 86% 30.16 in 2.5 mi WNW 20.7 mph - 0.00 in Snow Light Snow
4:44 AM 24.8 °F 10.3 °F 21.2 °F 86% 30.16 in 4.0 mi WNW 20.7 mph - 0.00 in Snow Light Snow
4:53 AM 24.1 °F 8.7 °F 19.9 °F 84% 30.28 in 4.0 mi WNW 23.0 mph - 0.00 in Snow Light Snow
5:53 AM 24.1 °F 8.7 °F 19.0 °F 81% 30.29 in 9.0 mi WNW 23.0 mph 29.9 mph 0.00 in   Overcast
6:53 AM 24.1 °F 8.3 °F 18.0 °F 77% 30.32 in 6.0 mi NW 24.2 mph - N/A   Haze
7:53 AM 24.1 °F 9.8 °F 18.0 °F 77% 30.35 in 10.0 mi NW 19.6 mph - N/A   Overcast
8:53 AM 24.1 °F 8.0 °F 18.0 °F 77% 30.36 in 2.5 mi NW 25.3 mph 34.5 mph N/A   Haze
9:24 AM 24.8 °F 8.4 °F 17.6 °F 74% 30.25 in 3.0 mi NW 27.6 mph - N/A   Haze
9:53 AM 25.0 °F 9.5 °F 16.0 °F 69% 30.38 in 9.0 mi NW 24.2 mph - N/A   Mostly Cloudy
10:53 AM 26.1 °F 13.6 °F 15.1 °F 63% 30.40 in 10.0 mi NW 16.1 mph - N/A   Clear
11:53 AM 28.0 °F 15.7 °F 14.0 °F 56% 30.39 in 10.0 mi NW 17.3 mph - N/A   Clear
12:53 PM 27.0 °F 14.7 °F 12.9 °F 56% 30.40 in 10.0 mi NNW 16.1 mph - N/A   Clear
1:53 PM 26.1 °F 14.0 °F 12.0 °F 55% 30.40 in 10.0 mi NNW 15.0 mph - N/A   Partly Cloudy
2:53 PM 27.0 °F 16.1 °F 12.9 °F 56% 30.40 in 10.0 mi NNW 12.7 mph - N/A   Partly Cloudy
3:53 PM 24.1 °F 14.4 °F 12.0 °F 60% 30.41 in 10.0 mi NNW 9.2 mph - N/A   Clear
4:53 PM 25.0 °F 20.7 °F 12.9 °F 60% 30.40 in 10.0 mi West 3.5 mph - N/A   Overcast
5:53 PM 21.9 °F 14.5 °F 12.9 °F 68% 30.41 in 10.0 mi South 5.8 mph - N/A   Overcast
6:53 PM 21.9 °F 15.7 °F 14.0 °F 72% 30.41 in 10.0 mi SW 4.6 mph - N/A   Overcast
7:53 PM 21.9 °F - 14.0 °F 72% 30.40 in 10.0 mi Calm Calm - N/A   Overcast
8:53 PM 24.1 °F 16.0 °F 14.0 °F 65% 30.39 in 10.0 mi WNW 6.9 mph - N/A   Overcast
9:53 PM 24.1 °F 14.4 °F 19.9 °F 84% 30.39 in 5.0 mi West 9.2 mph - 0.00 in Snow Light Snow
10:09 PM 24.8 °F 16.1 °F 19.4 °F 80% 30.25 in 2.5 mi West 8.1 mph - 0.00 in Snow Light Snow
10:18 PM 24.8 °F 16.1 °F 21.2 °F 86% 30.25 in 3.0 mi WNW 8.1 mph - 0.00 in Snow Light Snow
10:28 PM 24.8 °F 17.9 °F 21.2 °F 86% 30.26 in 2.5 mi WNW 5.8 mph - 0.00 in Snow Light Snow
10:42 PM 24.8 °F 17.9 °F 21.2 °F 86% 30.26 in 1.8 mi West 5.8 mph - 0.00 in Snow Light Snow
10:53 PM 24.1 °F 17.0 °F 21.0 °F 88% 30.40 in 1.8 mi West 5.8 mph - 0.01 in Snow Light Snow
11:00 PM 24.8 °F 19.1 °F 21.2 °F 86% 30.26 in 2.5 mi West 4.6 mph - 0.00 in Snow Light Snow
11:09 PM 24.8 °F 17.9 °F 21.2 °F 86% 30.27 in 3.0 mi West 5.8 mph - 0.00 in Snow Light Snow
11:16 PM 24.8 °F 16.9 °F 21.2 °F 86% 30.27 in 2.0 mi West 6.9 mph - 0.00 in Snow Light Snow
11:25 PM 24.8 °F 16.1 °F 21.2 °F 86% 30.27 in 1.8 mi West 8.1 mph - 0.00 in Snow Light Snow
11:34 PM 24.8 °F 15.3 °F 21.2 °F 86% 30.27 in 2.5 mi West 9.2 mph - 0.00 in Snow Light Snow
11:44 PM 24.8 °F 15.3 °F 21.2 °F 86% 30.26 in 4.0 mi WSW 9.2 mph - 0.01 in Snow Light Snow
11:53 PM 24.1 °F 13.7 °F 21.0 °F 88% 30.39 in 5.0 mi WSW 10.4 mph - 0.01 in Snow Light Snow